This is the latest recevied weather packets stored in our database for station/object W4MSI. If no packets are shown the sender has not sent any weather packets the latest 10 day(s).
| Time | Temp. | Humidity | Pressure | Rain* | Wind** | Luminosity | Snow |
|---|---|---|---|---|---|---|---|
| 1777619280 | 7.78° C | 87% | 1014.7 hPa | 0 mm | - | 0 W/m² | - |
| 1777618975 | 8.33° C | 86% | 1014.8 hPa | 0 mm | - | 0 W/m² | - |
| 1777618670 | 8.33° C | 84% | 1014.7 hPa | 0 mm | - | 0 W/m² | - |
| 1777618370 | 8.33° C | 79% | 1015.1 hPa | 0 mm | - | 0 W/m² | - |
| 1777618068 | 8.33° C | 80% | 1014.9 hPa | 0 mm | - | 0 W/m² | - |
| 1777617764 | 8.89° C | 85% | 1014.9 hPa | 0 mm | - | 0 W/m² | - |
| 1777617464 | 8.89° C | 83% | 1015.2 hPa | 0 mm | - | 0 W/m² | - |
| 1777617162 | 8.89° C | 81% | 1015.3 hPa | 0 mm | - | 0 W/m² | - |
| 1777616858 | 8.33° C | 75% | 1015.2 hPa | 0 mm | - | 0 W/m² | - |
| 1777616553 | 8.33° C | 87% | 1015.3 hPa | 0 mm | - | 0 W/m² | - |
| 1777616249 | 8.33° C | 87% | 1015.3 hPa | 0 mm | - | 0 W/m² | - |
| 1777615946 | 8.33° C | 85% | 1015.4 hPa | 0 mm | - | 0 W/m² | - |
| 1777615643 | 8.33° C | 85% | 1015.2 hPa | 0 mm | - | 0 W/m² | - |
| 1777615340 | 8.33° C | 85% | 1015.2 hPa | 0 mm | - | 0 W/m² | - |
| 1777615038 | 8.33° C | 85% | 1015.4 hPa | 0 mm | - | 0 W/m² | - |
| 1777614735 | 8.33° C | 86% | 1015.4 hPa | 0 mm | - | 0 W/m² | - |
| 1777614430 | 8.33° C | 86% | 1015.4 hPa | 0 mm | - | 0 W/m² | - |
| 1777614126 | 8.33° C | 86% | 1015.5 hPa | 0 mm | - | 0 W/m² | - |
| 1777613821 | 8.33° C | 86% | 1015.4 hPa | 0 mm | - | 0 W/m² | - |
| 1777613519 | 8.33° C | 85% | 1015.5 hPa | 0 mm | - | 0 W/m² | - |
| 1777613215 | 8.33° C | 84% | 1015.5 hPa | 0 mm | - | 0 W/m² | - |
| 1777612912 | 8.33° C | 83% | 1015.5 hPa | 0 mm | - | 0 W/m² | - |
| 1777612607 | 8.33° C | 83% | 1015.4 hPa | 0 mm | - | 0 W/m² | - |
| 1777612303 | 8.33° C | 86% | 1015.7 hPa | 0 mm | - | 0 W/m² | - |
| 1777611999 | 8.33° C | 85% | 1015.6 hPa | 0 mm | - | 0 W/m² | - |
* Rain latest hour (hover to see other rain measurements)
** Current wind speed in m/s (hover to see current wind gust speed)